[[{"header":{"parameterUnit":"m.s-1","parameterCategory":1,"la1":30.2991,"la2":30.254,"lo1":-89.0895,"lo2":-89.0444,"dy":0.0017,"dx":0.0017,"nx":28,"ny":28,"refTime":"2025-04-01T03:00:00:Z","depth":0,"parameterNumber":2,"parameterNumberName":"U-component_of_WINDS"},"data":[0,0,0,0,0,0,0,0,0,0,0,0,0,0,0,0,0,0,0,0,0,0,0,0,0,0,0,0,0,0,0,0,0,0,0,0,0,0,0,0,0,0,0,0,0,0,0,0,0,0,0,0,0,0,0,0,0,0,-4.918,-4.9181,0,-4.9352,-4.9354,-4.9356,-4.9392,-4.9391,-4.939,-4.9389,-4.9564,-4.957,-4.9576,0,0,0,0,0,0,0,0,0,0,0,0,0,-4.8884,-4.8889,-4.9179,-4.9182,-4.9184,-4.9351,-4.9354,-4.9356,-4.9393,-4.9391,-4.939,-4.9388,-4.9562,-4.9569,-4.9576,0,0,0,0,0,0,0,0,0,0,0,0,0,-4.9029,-4.889,-4.9179,-4.9222,-4.9228,-4.9351,-4.9354,-4.9357,-4.9393,-4.9391,-4.9389,-4.9387,-4.956,-4.9569,-4.9577,-4.9669,0,0,-4.9604,-4.9608,0,0,0,0,0,0,0,0,-4.9021,-4.904,-4.9214,-4.922,-4.9226,-4.9349,-4.9314,-4.9461,-4.9394,-4.933,-4.9389,-4.9387,-4.9494,-4.9508,-4.9545,-4.9677,-4.9685,-4.9605,-4.961,-4.9614,-4.9617,0,0,0,0,0,0,0,-4.9011,-4.9033,-4.9248,-4.9216,-4.9224,-4.9233,-4.9252,-4.9342,-4.9421,-4.9336,-4.9339,-4.9359,-4.9497,-4.9536,-4.9549,-4.9688,-4.9605,-4.9612,-4.9618,-4.9621,-4.9905,-4.9908,0,0,0,0,0,0,-4.8993,-4.9024,-4.9242,-4.9253,-4.9117,-4.924,-4.9261,-4.9311,-4.942,-4.9435,-4.936,-4.936,-4.9522,-4.9539,-4.9555,-4.967,-4.9614,-4.9622,-4.9627,-4.9903,-4.9906,-4.9908,0,0,0,0,0,0,-4.8987,-4.9012,-4.9235,-4.914,-4.9169,-4.9247,-4.9303,-4.9316,-4.9355,-4.9438,-4.9452,-4.9385,-4.9521,-4.9543,-4.9641,-4.9676,-4.9626,-4.9634,-4.99,-4.9904,-4.9907,-4.9899,0,0,0,0,0,0,-4.8978,-4.901,-4.9045,-4.914,-4.9174,-4.9317,-4.9306,-4.932,-4.937,-4.9371,-4.9466,-4.948,-4.9521,-4.9628,-4.965,-4.9688,-4.9641,-4.9898,-4.9902,-4.9906,-4.9897,-4.9902,-4.9907,0,0,0,0,0,-4.8967,-4.9036,-4.9047,-4.9073,-4.9219,-4.9319,-4.9339,-4.9385,-4.9372,-4.9409,-4.9463,-4.9477,-4.967,-4.9637,-4.9662,-4.9703,-4.9895,-4.9901,-4.9906,-4.9895,-4.9901,-4.9907,0,0,0,0,0,0,-4.8942,-4.9049,-4.9062,-4.9163,-4.9232,-4.9325,-4.9372,-4.9391,-4.9464,-4.9462,-4.9517,-4.9539,-4.9633,-4.9679,-4.9641,-4.9799,-4.9782,-4.9792,-4.9765,-4.9772,-4.9777,-4.9763,-4.9648,0,0,0,0,0,-4.8949,-4.9021,-4.911,-4.9191,-4.9225,-4.9293,-4.9338,-4.9369,-4.9442,-4.9471,-4.9532,-4.9603,-4.968,-4.9729,-4.9804,-4.9905,-4.9926,-4.9946,-4.995,-4.9954,-4.9962,-5.0019,-5.0028,-4.9925,-4.9925,-4.9925,0,0,-4.8962,-4.903,-4.9072,-4.9188,-4.9245,-4.9318,-4.9317,-4.9395,-4.945,-4.9483,-4.9579,-4.9626,-4.9709,-4.9809,-4.9856,-4.9849,-4.9995,-4.9961,-4.9963,-4.9969,-5.0025,-5.0034,-5.0043,-4.9929,-4.9928,-4.9928,0,0,-4.9025,-4.9083,-4.9157,-4.9214,-4.93,-4.9345,-4.9363,-4.9454,-4.9487,-4.9585,-4.9611,-4.9678,-4.9809,-4.9866,-4.9913,-4.9999,-5.0015,-5.0022,-5.0047,-5.0102,-5.011,-5.0118,-5.0148,-5.0158,-5.003,-5.003,-5.003,0,-4.903,-4.9142,-4.9192,-4.9269,-4.9319,-4.9354,-4.9429,-4.9482,-4.9588,-4.9622,-4.9614,-4.978,-4.9838,-4.9952,-4.9973,-5.001,-5.0031,-5.001,-5.0105,-5.0113,-5.0121,-5.015,-5.0161,-5.0031,-5.0031,-5.003,-5.003,0,-4.9145,-4.9222,-4.9271,-4.9373,-4.943,-4.9505,-4.9567,-4.9618,-4.9644,-4.969,-4.9789,-4.9861,-4.9951,-4.9981,-5.0007,-5.0099,-5.0092,-5.0094,-5.0078,-5.013,-5.0158,-5.017,-5.0031,-5.0031,-5.0031,-5.0031,0,0,-4.9194,-4.9324,-4.9341,-4.9388,-4.9486,-4.9547,-4.9625,-4.9714,-4.9756,-4.9829,-4.9895,-5.0006,-5.0009,-5.0062,-5.0095,-5.0144,-5.0207,-5.014,-5.0143,-5.0149,-5.0312,-5.0308,-5.032,-5.0218,-5.0221,-5.0223,-5.0304,0,-4.9267,-4.9406,-4.9454,-4.9569,-4.9641,-4.9676,-4.9744,-4.9811,-4.9857,-4.9925,-4.9976,-5.0053,-5.0052,-5.0084,-5.0133,-5.0188,-5.024,-5.0183,-5.028,-5.0283,-5.0256,-5.0335,-5.0332,-5.0405,-5.0316,-5.0318,-5.0319,0,-4.937,-4.9445,-4.9567,-4.9657,-4.9689,-4.9749,-4.9834,-4.9899,-4.9977,-5.0007,-5.0067,-5.0097,-5.018,-5.0161,-5.0276,-5.0237,-5.028,-5.0313,-5.0317,-5.0326,-5.0302,-5.0345,-5.0429,-5.044,-5.0337,-5.0336,-5.0334,0,-4.9392,-4.9523,-4.9613,-4.9653,-4.976,-4.9802,-4.9849,-4.9925,-4.9976,-5.0051,-5.0084,-5.0168,-5.0213,-5.0278,-5.033,-5.0312,-5.044,-5.0426,-5.0467,-5.0466,-5.0491,-5.0488,-5.0581,-5.0521,-5.0521,-5.0521,-5.0521,0,-4.9468,-4.9541,-4.9625,-4.968,-4.9763,-4.9818,-4.9899,-4.9948,-5.0016,-5.0082,-5.0118,-5.0179,-5.0245,-5.0315,-5.0356,-5.0445,-5.0466,-5.0492,-5.0502,-5.0488,-5.0484,-5.0515,-5.0511,-5.0524,-5.0523,-5.0522,-5.0522,0,-4.9505,-4.9565,-4.9665,-4.9759,-4.9785,-4.9842,-4.9923,-4.9978,-5.0026,-5.0108,-5.0131,-5.0206,-5.029,-5.0349,-5.0457,-5.0486,-5.0581,-5.0591,-5.0554,-5.0558,-5.0596,-5.0591,-5.0711,-5.0729,-5.0658,-5.0658,-5.0659,0,-4.9549,-4.9606,-4.9706,-4.9753,-4.98,-4.9874,-4.9926,-4.9984,-5.0036,-5.013,-5.0174,-5.0261,-5.0333,-5.0465,-5.053,-5.0613,-5.0624,-5.0661,-5.0637,-5.0621,-5.0624,-5.0619,-5.0625,-5.0664,-5.0664,-5.0665,-5.0665,0,-4.9619,-4.9646,-4.9719,-4.9803,-4.9864,-4.9933,-5.0002,-5.0038,-5.0108,-5.0166,-5.0252,-5.0308,-5.0419,-5.0504,-5.0594,-5.0642,-5.0665,-5.0672,-5.0686,-5.0671,-5.0647,-5.066,-5.0562,-5.0669,-5.0668,-5.0668,-5.0668,-5.0668,-4.9661,-4.9713,-4.9792,-4.9873,-4.9931,-4.9995,-5.0051,-5.0107,-5.018,-5.0274,-5.0304,-5.0393,-5.0472,-5.0594,-5.0644,-5.0715,-5.0713,-5.0733,-5.0738,-5.0742,-5.0741,-5.0637,-5.0732,-5.0732,-5.0732,-5.0732,-5.0732,0,-4.9732,-4.9785,-4.9859,-4.9954,-5.0018,-5.0035,-5.0113,-5.0165,-5.0243,-5.0314,-5.0384,-5.0484,-5.0567,-5.0639,-5.0725,-5.0768,-5.0781,-5.0789,-5.0785,-5.0796,-5.0738,-5.0717,-5.0777,-5.0777,-5.0777,-5.0777,-5.0777,-5.0777,-4.9777,-4.9866,-4.9902,-5.0021,-5.0074,-5.0161,-5.0204,-5.0264,-5.0321,-5.043,-5.0499,-5.0546,-5.0617,-5.0709,-5.0787,-5.0806,-5.0835,-5.0841,-5.0862,-5.0806,-5.08,-5.0795,-5.0775,-5.0847,-5.0847,-5.0914,-5.0914,-5.0915]},{"header":{"parameterUnit":"m.s-1","parameterCategory":1,"la1":30.2991,"la2":30.254,"lo1":-89.0895,"lo2":-89.0444,"dy":0.0017,"dx":0.0017,"nx":28,"ny":28,"refTime":"2025-04-01T03:00:00:Z","depth":0,"parameterNumber":3,"parameterNumberName":"V-component_of_WINDS"},"data":[0,0,0,0,0,0,0,0,0,0,0,0,0,0,0,0,0,0,0,0,0,0,0,0,0,0,0,0,0,0,0,0,0,0,0,0,0,0,0,0,0,0,0,0,0,0,0,0,0,0,0,0,0,0,0,0,0,0,6.9537,6.9538,0,6.965,6.9652,6.9653,6.9635,6.9633,6.9631,6.9629,6.9741,6.9746,6.9751,0,0,0,0,0,0,0,0,0,0,0,0,0,6.9302,6.9306,6.9537,6.9538,6.954,6.965,6.9652,6.9653,6.9635,6.9633,6.9631,6.9629,6.974,6.9745,6.9751,0,0,0,0,0,0,0,0,0,0,0,0,0,6.9408,6.9308,6.9536,6.9544,6.9546,6.965,6.9652,6.9654,6.9636,6.9633,6.963,6.9627,6.9738,6.9745,6.9752,6.9854,0,0,6.9774,6.9777,0,0,0,0,0,0,0,0,6.9402,6.9417,6.9542,6.9544,6.9546,6.9626,6.961,6.9721,6.9637,6.9602,6.9629,6.9626,6.9705,6.9715,6.9742,6.9859,6.9864,6.9774,6.9779,6.9782,6.9784,0,0,0,0,0,0,0,6.9395,6.9412,6.9582,6.9543,6.9546,6.9541,6.9553,6.9631,6.9668,6.9604,6.9603,6.9617,6.9705,6.9735,6.9745,6.9866,6.9774,6.978,6.9785,6.9788,7.0075,7.0078,0,0,0,0,0,0,6.9386,6.9406,6.9578,6.9585,6.9466,6.9548,6.9561,6.9603,6.9667,6.9674,6.962,6.9616,6.9724,6.9736,6.9748,6.9874,6.9782,6.9788,6.9793,7.0071,7.0075,7.0079,0,0,0,0,0,0,6.9381,6.9401,6.9573,6.9495,6.9517,6.9555,6.9602,6.9607,6.9637,6.9679,6.9685,6.9644,6.9723,6.9738,6.9829,6.9878,6.9792,6.9798,7.0068,7.0073,7.0077,7.0125,0,0,0,0,0,0,6.9374,6.94,6.9439,6.9496,6.9521,6.9653,6.9605,6.9611,6.9649,6.9646,6.9703,6.9709,6.9721,6.9818,6.9836,6.9886,6.9804,7.0063,7.007,7.0076,7.0119,7.0131,7.0141,0,0,0,0,0,6.9366,6.9447,6.9442,6.9462,6.9572,6.9656,6.967,6.9683,6.9653,6.9694,6.9721,6.9707,6.9869,6.9828,6.9847,6.99,7.006,7.0068,7.0075,7.0114,7.0129,7.0141,0,0,0,0,0,0,6.9392,6.9454,6.9449,6.9551,6.9599,6.9652,6.9703,6.9698,6.9753,6.9747,6.9761,6.9774,6.9866,6.9892,6.9844,7.0004,6.9961,6.9972,6.9983,6.9997,7.0008,7.0,6.981,0,0,0,0,0,6.941,6.9474,6.9524,6.961,6.9634,6.9665,6.9702,6.9709,6.9758,6.9777,6.9811,6.9858,6.992,6.996,7.0019,7.0123,7.0136,7.0169,7.018,7.0189,7.0199,7.0258,7.0274,7.0104,7.0104,7.0103,0,0,6.9447,6.9489,6.9528,6.9616,6.9654,6.9719,6.9681,6.9752,6.9801,6.9787,6.9876,6.9902,6.9956,7.0054,7.0099,7.0079,7.0249,7.0198,7.0205,7.021,7.0267,7.0283,7.0297,7.0109,7.0108,7.0107,0,0,6.9549,6.9587,6.9663,6.9702,6.9761,6.9781,6.9799,6.9855,6.9873,6.9962,6.9954,7.0012,7.0117,7.0157,7.019,7.031,7.03,7.0328,7.0385,7.0443,7.0456,7.0468,7.0512,7.0527,7.0338,7.0338,7.0338,0,6.9587,6.9687,6.9702,6.9775,6.9814,6.9807,6.9885,6.9921,6.9995,7.0022,6.9998,7.0133,7.0168,7.0276,7.0306,7.0333,7.0355,7.0322,7.0453,7.0465,7.0477,7.0519,7.0535,7.0342,7.0341,7.0341,7.0341,0,6.9732,6.9802,6.9856,6.9931,6.9976,7.005,7.0076,7.012,7.0123,7.0146,7.0238,7.0281,7.0349,7.0375,7.0378,7.0485,7.0471,7.045,7.0407,7.0496,7.0536,7.0552,7.0346,7.0345,7.0344,7.0343,0,0,6.9853,6.9936,6.9956,6.9991,7.0056,7.0109,7.0184,7.0253,7.0291,7.0342,7.0405,7.0496,7.0478,7.0517,7.0524,7.0574,7.0668,7.0548,7.0549,7.057,7.079,7.0806,7.0824,7.0662,7.0665,7.0668,7.0786,0,6.9961,7.0095,7.0112,7.023,7.0295,7.029,7.0355,7.0402,7.0426,7.0484,7.0509,7.0574,7.0545,7.0568,7.0618,7.0646,7.0713,7.0638,7.0721,7.0724,7.0709,7.0845,7.0861,7.0971,7.0802,7.0804,7.0806,0,7.0106,7.0165,7.029,7.0348,7.0376,7.0434,7.05,7.0556,7.0609,7.0623,7.0667,7.0669,7.0746,7.07,7.0806,7.0755,7.079,7.0809,7.0814,7.0822,7.0771,7.0858,7.1006,7.1023,7.0831,7.0829,7.0827,0,7.0183,7.0293,7.0383,7.0412,7.0482,7.0523,7.0554,7.0605,7.0646,7.0703,7.073,7.0794,7.083,7.0879,7.0899,7.0863,7.1005,7.096,7.1018,7.1018,7.1048,7.1046,7.1205,7.107,7.1069,7.1069,7.1069,0,7.0303,7.038,7.0419,7.0474,7.0561,7.0579,7.0664,7.0693,7.0738,7.0799,7.0798,7.0854,7.0876,7.0936,7.0951,7.1038,7.1054,7.1067,7.107,7.1068,7.1066,7.1091,7.1084,7.1073,7.1072,7.1072,7.1071,0,7.0404,7.0433,7.0531,7.059,7.0606,7.0668,7.0718,7.0771,7.0795,7.0872,7.0891,7.0928,7.0999,7.1023,7.1108,7.1119,7.122,7.1216,7.1203,7.1204,7.1262,7.1256,7.1442,7.1468,7.1315,7.1316,7.1317,0,7.0479,7.0539,7.0606,7.0647,7.068,7.0747,7.079,7.081,7.0855,7.0921,7.0967,7.1038,7.1096,7.121,7.1243,7.1309,7.1307,7.1368,7.1317,7.1313,7.131,7.1307,7.1313,7.1378,7.1379,7.1381,7.1382,0,7.0611,7.0623,7.0685,7.0754,7.0806,7.086,7.0912,7.0946,7.0975,7.1025,7.1099,7.1144,7.1233,7.1303,7.1371,7.1401,7.1397,7.1398,7.1415,7.1413,7.1404,7.1411,7.123,7.1393,7.1392,7.1391,7.1391,7.139,7.0702,7.0756,7.0812,7.0882,7.0925,7.0974,7.1028,7.106,7.1122,7.1198,7.1206,7.1286,7.1338,7.1429,7.1463,7.1526,7.1509,7.1533,7.154,7.1546,7.1551,7.1394,7.1538,7.1537,7.1537,7.1537,7.1537,0,7.0835,7.0871,7.0936,7.1011,7.1066,7.1059,7.1117,7.1164,7.1235,7.1285,7.1343,7.1429,7.1498,7.1539,7.1608,7.165,7.165,7.1668,7.1665,7.1673,7.1561,7.154,7.1667,7.1667,7.1667,7.1667,7.1667,7.1667,7.091,7.1002,7.1021,7.1133,7.1168,7.1248,7.1282,7.1328,7.1369,7.1466,7.1524,7.1551,7.1597,7.167,7.1734,7.1744,7.177,7.179,7.1798,7.1693,7.168,7.1667,7.1648,7.1795,7.1795,7.1904,7.1905,7.1906]}]]